Theta_e
337 336 334 335 334 334 333 333 331 330 330 329 329 330 330 332 332 332 333 333 334 334 334 334 333 334 334 334 334 334 334 334 334 334 335 336 336 336 337 337 337 336 337 337 336 337 337 335 334 331 331 330 330 332 331 332 334 334 334 333 330 325 323 327 328 326 322 319 320 323 324 324 324 325 325 323 317 315 318 318 325 330 330 328 322
337 337 335 334 334 334 333 332 331 331 331 332 332 331 331 331 331 333 334 333 333 334 334 334 334 333 334 334 334 335 334 334 333 333 333 333 333 334 336 336 336 336 337 336 335 335 335 333 331 329 329 331 332 333 332 333 333 333 334 331 328 326 325 324 326 328 325 321 322 324 325 324 320 318 317 317 314 316 320 322 328 331 329 326 320
337 337 335 333 333 333 332 331 330 331 332 333 333 333 332 331 332 333 333 333 333 334 333 334 333 334 334 334 332 331 330 329 329 329 327 327 327 327 330 333 335 335 336 335 334 334 334 333 329 328 330 332 334 334 333 333 333 333 332 328 328 330 328 326 326 327 326 323 323 327 329 328 323 317 316 314 313 316 320 322 325 328 328 324 322
337 336 335 334 334 332 331 330 329 329 330 332 332 332 332 332 332 332 333 333 334 333 333 333 333 333 332 329 328 328 327 328 328 327 327 327 326 323 322 327 331 333 334 333 333 333 333 332 328 330 333 334 334 333 333 333 333 332 329 329 330 331 331 329 327 327 327 324 325 329 330 330 326 321 319 316 314 315 317 318 319 322 321 319 321
336 334 334 335 335 333 330 329 329 329 329 330 331 331 331 332 332 332 333 333 333 333 332 331 330 329 329 328 328 329 328 331 331 330 331 329 328 325 322 325 328 331 333 333 333 333 332 332 330 332 334 334 334 333 333 333 331 329 329 330 331 331 331 330 328 328 328 326 328 330 330 330 329 326 322 319 316 315 315 315 314 316 314 314 320
334 333 333 334 334 332 331 330 329 329 328 328 330 331 331 332 333 332 332 332 332 332 330 329 328 329 330 330 330 330 330 331 331 330 330 329 329 328 326 326 328 331 332 333 333 333 333 333 333 333 333 334 334 333 333 332 331 331 332 331 331 330 329 329 328 328 327 329 330 331 331 330 329 328 325 322 319 318 318 317 317 316 313 314 323
335 334 333 334 332 332 331 330 330 329 328 329 329 330 331 332 332 331 331 331 331 331 329 330 331 331 331 331 330 330 330 330 329 329 329 329 330 330 330 328 329 331 332 332 331 333 333 333 333 333 333 334 333 333 333 332 332 332 331 330 330 327 328 329 328 327 327 330 333 332 332 330 330 328 326 324 320 321 322 322 322 318 313 313 322
336 334 334 335 333 331 331 329 329 329 330 330 330 331 331 332 331 331 331 331 331 330 330 331 332 332 331 330 330 331 330 330 330 331 330 330 331 332 332 331 331 331 331 332 332 333 333 333 332 332 333 333 333 333 332 330 330 331 330 329 328 325 327 329 327 328 329 332 333 333 332 331 331 328 326 324 322 323 323 325 327 319 312 313 319
335 335 336 337 333 331 330 329 329 329 331 331 331 331 332 332 331 331 331 331 330 329 330 332 332 332 331 330 330 329 330 330 331 332 331 332 332 334 334 333 333 332 333 333 333 332 332 333 330 329 329 331 332 332 330 327 327 329 330 328 327 325 327 329 327 329 333 334 333 333 333 331 332 329 327 326 323 324 324 326 329 323 313 312 319
334 335 335 336 333 330 330 329 329 330 331 331 331 331 331 331 331 330 331 331 330 330 332 332 332 331 330 329 328 328 329 330 331 332 332 332 333 335 335 334 333 333 333 333 333 331 331 331 329 326 325 326 327 327 326 325 324 326 329 328 326 325 327 329 328 330 334 334 333 333 332 329 331 330 328 328 324 324 324 325 328 324 317 312 315
334 335 335 333 332 330 330 330 330 330 331 331 331 330 330 330 330 330 331 331 330 331 332 332 332 330 329 327 326 325 327 329 330 331 332 333 334 335 335 334 334 333 333 333 332 331 331 330 326 324 323 322 321 321 322 323 323 325 328 328 326 325 328 327 329 334 334 334 333 333 333 329 331 331 328 328 325 324 323 323 324 321 316 313 313
335 335 335 333 331 330 329 329 329 329 330 329 329 329 329 330 330 330 330 331 331 331 331 331 329 328 327 327 326 323 324 327 329 330 332 332 334 335 334 333 333 333 333 333 332 331 330 327 325 323 322 322 319 318 319 322 323 326 328 328 326 326 328 328 330 335 333 333 333 333 333 333 333 331 328 327 326 326 324 323 322 317 315 316 317
334 334 334 332 330 330 329 328 328 328 328 328 329 329 329 329 329 329 329 330 331 331 330 329 327 327 327 327 327 325 323 325 326 329 330 331 333 334 333 333 333 333 332 331 330 329 328 327 327 325 323 322 321 319 319 320 321 323 326 327 327 325 325 327 330 333 332 332 333 333 333 334 334 331 329 327 327 327 324 323 323 320 320 322 322
334 334 333 331 329 329 328 328 328 328 328 328 329 329 329 329 328 329 329 329 330 329 329 327 326 327 327 327 326 325 324 323 324 327 329 330 332 333 333 333 332 332 331 329 328 328 327 327 327 326 324 323 324 323 321 320 320 320 322 324 325 324 322 326 331 332 332 333 332 333 333 335 333 331 329 327 328 327 323 322 321 320 320 320 319
333 332 331 330 328 328 328 327 328 329 328 328 329 328 328 328 328 328 328 328 328 328 327 326 326 326 326 326 325 324 324 322 321 323 327 330 331 331 332 332 331 331 331 329 328 327 326 327 326 325 324 324 324 325 324 322 322 321 321 322 323 323 322 325 331 332 332 333 333 333 334 335 332 330 330 329 330 328 325 322 319 319 319 317 315
331 331 330 329 327 327 327 327 328 328 328 328 327 327 327 327 327 327 327 327 327 327 326 326 326 326 326 325 324 324 324 322 321 319 321 326 330 331 331 331 331 331 330 329 329 327 325 325 325 324 324 324 324 324 324 323 323 322 322 323 323 323 323 324 329 332 332 333 333 333 335 334 331 331 331 330 330 328 327 323 319 321 321 319 317
330 330 329 328 328 327 326 328 329 328 328 328 327 327 327 326 326 326 326 326 326 326 325 325 325 325 325 324 323 323 323 324 323 320 317 318 321 325 328 328 329 329 329 328 328 326 324 323 323 322 322 323 323 323 324 323 323 323 322 322 322 322 323 322 327 332 333 333 333 333 335 333 331 331 331 331 331 329 328 325 321 323 323 321 318
331 330 329 328 327 327 327 328 329 328 328 328 326 325 326 326 326 326 325 325 326 326 325 325 325 326 326 325 324 324 325 325 325 323 320 318 316 317 319 320 322 324 325 325 325 324 323 323 322 321 321 320 320 321 322 322 322 322 322 321 321 321 321 320 325 332 332 333 333 333 334 333 331 331 331 332 332 331 329 325 321 321 322 320 317
330 329 329 328 327 327 327 328 328 328 328 327 325 324 325 325 325 326 325 325 325 325 325 325 325 326 326 326 326 326 327 326 326 325 324 323 322 320 318 317 317 318 318 319 319 319 320 320 320 320 318 318 319 319 320 321 322 321 321 320 320 320 320 322 329 332 331 334 334 334 335 333 330 331 332 331 331 331 329 327 323 322 322 321 319
330 329 329 327 327 327 328 327 327 327 326 325 325 324 324 325 325 325 325 324 324 324 324 324 324 326 326 326 327 327 327 328 328 327 326 325 326 325 324 322 321 320 320 319 318 318 317 317 318 317 316 316 316 317 319 320 321 322 321 321 321 320 322 328 333 332 333 334 333 334 334 331 331 332 331 330 331 331 330 329 325 324 325 324 324
331 329 328 327 327 328 327 327 327 326 325 325 324 325 325 325 325 324 325 324 324 324 324 325 325 326 327 327 327 327 328 329 328 328 328 328 327 327 326 326 325 325 325 324 323 322 322 322 322 321 320 319 317 317 318 318 320 322 322 323 321 323 329 331 333 334 335 335 334 334 333 331 332 331 330 330 330 330 330 330 328 328 327 327 327
333 331 328 326 327 328 327 327 327 326 326 325 325 326 325 325 325 325 325 324 323 323 324 325 325 326 327 327 327 328 328 328 328 327 328 328 327 327 327 327 327 327 327 326 325 324 325 324 325 325 326 325 324 325 326 324 321 321 321 322 323 328 334 331 330 334 336 336 335 334 332 332 331 330 330 330 329 329 331 331 331 331 330 329 329
333 332 328 325 327 328 327 326 326 326 326 326 329 329 326 325 326 326 326 325 324 324 325 325 325 325 324 325 326 327 328 327 327 327 327 327 327 327 327 327 327 327 327 328 327 325 325 325 325 325 325 327 328 331 333 332 330 327 325 325 329 332 332 329 330 335 337 336 334 332 332 332 330 328 330 329 328 328 330 331 331 331 330 330 330
333 332 328 326 327 327 326 325 326 327 327 327 331 331 328 327 327 326 326 325 325 325 325 323 323 322 322 322 322 324 327 328 327 328 328 329 330 329 328 328 328 328 328 329 330 328 327 327 328 326 326 329 332 334 335 335 335 334 333 333 334 333 330 330 332 335 337 336 334 332 332 331 329 329 330 329 328 328 329 330 331 331 331 330 330
332 332 331 328 326 326 325 325 327 328 326 328 330 330 328 328 327 325 323 322 324 325 322 320 320 321 322 321 321 322 325 328 327 328 329 329 332 331 331 330 329 330 329 331 334 333 331 332 332 331 331 333 334 335 335 334 334 335 336 336 335 333 331 333 333 333 335 336 334 332 331 330 329 329 329 329 328 328 329 330 330 331 331 330 330
331 332 332 330 327 326 325 327 329 327 326 328 329 328 327 325 323 324 324 324 326 326 323 321 320 321 323 322 322 322 324 326 326 326 327 329 330 330 330 327 327 329 327 330 333 332 332 334 334 334 334 335 335 336 335 333 334 336 336 336 336 335 334 334 334 332 332 334 332 330 330 330 330 329 328 328 329 328 329 330 330 330 330 329 329
332 332 332 331 328 325 325 327 328 327 326 326 325 325 324 323 322 324 326 326 326 328 325 322 322 321 320 321 323 324 325 327 326 327 328 329 328 328 328 326 327 329 325 326 330 330 331 332 333 334 334 334 334 335 335 334 335 336 336 336 335 335 334 334 334 332 331 333 331 330 330 330 330 329 328 329 329 329 329 330 330 330 329 328 329
332 331 332 331 327 325 325 326 325 323 323 322 322 323 324 324 324 325 324 325 327 327 324 322 324 322 317 319 322 323 326 327 328 328 328 328 326 326 328 327 328 328 324 324 327 328 331 331 332 334 334 334 334 334 335 335 335 335 336 334 332 333 333 331 330 331 333 333 331 330 330 330 330 329 329 330 330 330 330 329 329 329 328 329 328
332 331 331 330 327 325 325 323 322 321 321 323 325 324 325 324 324 324 322 324 324 322 321 321 323 323 318 319 321 320 322 324 324 326 327 327 326 326 327 327 327 327 326 326 324 325 329 331 331 332 333 333 334 334 334 334 334 335 335 334 331 331 331 330 330 331 335 333 330 329 329 330 330 329 330 330 330 330 329 329 329 329 328 329 329
331 332 331 328 324 323 322 320 320 321 322 325 325 322 323 323 323 323 323 323 320 318 321 319 319 320 317 318 319 318 318 318 317 319 323 325 326 326 326 327 327 327 327 327 326 325 327 329 330 331 331 332 332 333 334 334 334 333 333 333 332 329 329 331 331 333 335 333 331 330 329 330 330 330 330 330 329 329 329 329 329 329 328 329 329
328 330 330 326 321 321 321 320 321 322 324 323 322 321 323 323 323 325 324 321 317 321 323 318 315 315 312 313 314 313 313 312 312 313 318 322 324 324 325 325 325 326 326 326 327 326 326 327 329 329 329 330 330 332 333 334 334 333 332 332 331 330 331 332 333 333 334 333 331 330 330 330 330 330 329 329 329 328 329 328 328 328 329 329 328
325 324 325 324 321 321 320 320 321 322 324 322 321 322 323 324 323 324 323 317 316 323 324 317 314 311 310 311 312 311 311 312 311 312 319 322 322 323 324 323 322 323 322 322 324 325 325 327 327 327 328 328 329 331 333 333 333 332 331 331 330 331 333 332 333 333 332 333 331 329 329 330 329 329 328 328 328 328 328 327 328 328 328 328 328
325 323 322 321 319 318 317 319 321 321 322 321 322 323 323 325 325 322 320 318 320 323 321 316 314 312 312 312 312 313 312 314 313 313 320 323 322 322 324 324 322 322 321 318 321 324 325 327 327 327 327 327 328 330 331 332 332 331 331 331 331 331 331 331 332 332 331 332 331 329 329 329 329 329 328 328 328 328 328 327 327 327 328 328 328
326 324 320 318 316 317 319 319 319 321 322 321 322 324 323 326 326 323 321 320 322 323 321 320 318 316 317 314 313 314 312 313 314 313 318 322 323 322 324 325 322 323 324 319 320 324 324 326 327 326 327 326 328 329 329 330 331 331 331 331 332 331 331 332 331 331 332 330 330 330 329 329 329 329 328 328 328 327 327 327 327 327 327 327 327
323 321 318 318 317 319 321 321 321 323 324 323 323 323 323 326 326 324 321 320 322 323 322 323 323 322 322 320 315 315 315 314 314 313 316 322 325 323 323 322 320 323 324 318 319 323 323 325 326 326 327 327 327 328 328 327 328 329 328 329 332 332 331 331 330 331 331 328 329 329 329 329 328 328 328 328 327 327 326 326 326 326 326 326 326
321 320 320 322 321 321 323 323 325 325 326 325 324 323 323 325 325 323 321 320 322 324 322 323 324 323 323 323 317 315 317 315 315 315 315 320 323 324 322 317 317 322 321 319 321 323 322 324 325 324 325 327 327 328 327 325 326 328 328 330 331 331 331 331 330 331 329 328 329 329 328 329 328 328 327 327 327 326 325 325 325 325 325 325 325
321 322 322 324 324 323 324 325 326 326 326 326 325 325 325 325 326 324 321 319 320 322 321 322 324 323 323 323 318 316 317 316 317 316 316 319 320 321 320 315 316 319 319 322 324 323 322 323 325 323 323 326 328 327 328 326 326 327 328 329 330 330 331 330 329 329 328 328 329 329 328 328 328 327 327 327 326 325 324 324 324 324 324 324 324
323 324 324 325 325 325 326 326 326 326 326 326 326 328 327 327 328 326 324 323 323 322 319 323 325 323 324 323 320 319 319 318 318 318 317 319 320 318 317 314 316 316 317 323 325 323 320 319 324 325 323 325 326 327 327 326 327 327 327 328 329 330 330 329 329 327 327 328 328 329 328 327 326 326 326 325 325 325 324 324 323 323 322 322 322
325 326 327 327 326 326 327 327 326 325 326 328 328 329 329 328 329 329 328 327 327 326 323 325 326 325 326 323 322 322 321 321 320 320 319 319 321 320 318 316 316 317 317 320 324 324 318 314 319 323 324 325 325 325 325 325 326 326 325 326 327 328 328 328 328 326 327 328 328 328 327 326 325 324 324 323 323 323 323 323 322 322 321 319 317
327 329 330 328 326 327 328 328 325 325 327 329 329 328 329 329 328 329 329 328 329 329 327 328 328 328 328 326 326 325 324 324 322 322 322 321 321 320 319 318 318 320 319 318 321 322 318 316 317 319 323 325 325 325 325 324 326 326 325 326 326 327 327 327 326 326 327 327 327 327 326 325 324 324 323 323 322 322 322 321 320 320 319 318 316
330 330 330 327 326 327 327 327 327 327 327 328 328 329 329 329 328 328 328 329 329 329 329 329 328 327 326 325 327 326 326 326 325 325 324 323 322 322 321 320 319 321 320 318 318 316 316 318 320 321 322 324 326 327 326 324 326 327 327 327 326 326 326 327 326 327 327 327 327 326 325 325 324 324 322 322 321 320 318 317 317 316 316 316 316
330 329 329 328 327 328 328 328 328 328 328 326 327 328 328 327 328 328 327 328 328 327 327 327 327 325 323 324 325 323 325 326 326 326 325 325 324 324 323 322 321 322 321 320 319 318 318 319 321 322 323 323 325 326 324 324 326 328 329 329 328 327 327 326 326 326 327 326 326 325 325 325 325 324 322 321 319 318 316 314 313 313 312 313 314
331 330 330 330 330 331 330 328 327 327 327 325 326 327 327 327 327 326 326 328 327 325 325 326 326 326 325 325 326 324 324 325 327 327 327 327 326 325 325 324 323 323 322 323 322 323 323 323 323 323 322 322 323 323 323 323 325 328 329 328 328 327 327 327 326 326 326 326 325 325 325 325 324 323 321 320 318 316 315 313 312 311 311 311 312
333 332 332 332 332 333 331 327 327 327 326 326 326 327 326 326 326 326 327 328 329 328 328 327 326 327 327 327 328 327 326 326 327 328 328 328 327 326 326 326 325 324 323 324 324 324 324 325 325 324 323 323 323 324 323 322 324 326 327 326 326 326 326 327 327 326 326 326 325 325 324 324 322 321 320 319 317 316 314 313 311 311 311 312 312
333 333 334 333 333 333 330 328 328 327 327 327 327 327 327 328 328 329 330 329 330 330 329 329 327 327 327 327 328 327 327 327 326 327 328 328 327 326 326 326 326 326 326 325 326 326 325 325 324 324 324 324 323 323 323 323 323 324 325 327 327 326 326 327 327 326 326 325 325 325 324 323 322 321 320 318 316 315 314 313 311 312 313 312 312
333 332 332 331 331 331 330 329 329 328 328 327 326 326 326 327 327 329 330 330 329 328 327 327 326 326 327 327 327 327 327 327 327 327 328 328 327 327 327 328 327 327 328 327 327 326 326 325 325 324 324 324 323 323 323 323 323 321 321 324 326 326 327 328 327 326 326 325 325 324 323 322 321 320 319 317 316 315 314 312 311 312 313 312 311
331 331 330 329 329 329 328 327 326 325 324 323 322 322 323 323 323 324 326 326 325 324 324 324 324 324 325 325 325 326 326 327 327 327 327 327 327 327 327 327 327 328 328 328 328 328 327 326 325 324 324 324 324 323 323 323 323 321 321 322 323 324 326 326 326 326 325 324 323 323 322 322 321 320 317 316 315 314 313 312 310 311 313 312 310
328 328 326 326 325 325 324 322 321 320 320 319 318 318 318 318 318 318 318 318 316 315 315 315 315 316 316 317 318 318 320 321 322 323 324 325 327 328 327 327 326 326 326 327 328 329 328 327 326 324 322 322 323 323 322 323 323 323 323 323 322 322 323 324 326 326 326 324 323 323 322 322 322 320 317 315 314 314 313 311 309 311 312 311 310
325 324 323 323 322 320 320 319 318 318 317 317 316 315 316 316 315 314 313 312 313 313 313 312 311 311 311 310 310 310 311 311 313 316 317 320 323 324 324 325 326 326 326 326 326 328 328 327 326 325 323 322 322 322 322 322 322 322 323 324 323 323 324 325 326 326 326 325 324 323 323 322 321 321 319 317 315 314 314 312 310 311 312 311 310
322 321 320 321 321 318 318 317 317 316 314 314 314 314 315 315 314 313 313 314 314 314 313 313 313 314 313 312 312 311 311 310 309 311 312 314 316 318 318 320 321 323 324 325 325 326 326 326 325 325 324 322 322 322 321 322 321 321 322 323 324 325 326 327 326 326 326 325 325 323 323 322 320 320 320 318 316 314 313 311 310 310 310 310 309
320 319 319 320 320 317 316 316 315 314 313 313 314 314 314 314 314 313 313 315 315 315 315 315 316 317 317 316 316 315 315 313 310 310 311 312 313 314 314 315 316 317 321 324 326 326 325 325 325 324 324 323 322 321 321 321 321 321 321 321 323 324 326 327 326 326 326 325 325 324 323 322 320 318 319 318 316 313 311 311 309 309 310 310 309
Wind_Speed
7 7 6 7 7 8 8 8 7 7 7 5 4 3 2 2 2 1 1 1 1 0 1 2 2 2 3 3 2 2 2 2 2 2 1 2 2 1 2 3 2 1 1 1 1 0 1 0 2 2 2 1 1 2 3 3 3 4 4 5 5 5 6 6 8 9 9 10 11 11 9 7 5 3 4 6 9 9 7 8 11 10 3 3 4
7 7 7 7 8 8 8 8 7 7 6 5 4 3 2 2 2 2 2 1 2 2 2 2 2 2 3 4 4 3 3 3 3 3 3 3 3 3 3 3 2 1 1 1 0 0 1 1 2 1 3 2 3 4 4 4 5 5 4 4 5 6 5 5 8 9 9 10 11 11 10 9 8 5 4 5 8 7 7 8 13 10 4 6 4
7 6 6 7 8 8 8 8 7 7 7 7 6 4 3 2 2 3 3 3 3 3 3 2 2 2 3 4 4 4 3 3 2 2 2 3 4 4 4 3 3 2 2 1 1 0 0 1 2 4 5 5 5 5 5 6 6 5 4 4 5 7 6 5 7 8 8 8 9 10 10 8 9 10 8 8 8 7 8 6 9 7 3 4 2
6 6 6 7 8 8 8 7 7 7 7 7 7 6 6 4 4 3 4 3 3 3 3 3 3 3 4 4 4 4 4 4 4 3 2 2 2 4 4 4 3 3 3 2 2 0 1 1 3 5 4 5 4 5 6 6 5 4 4 4 4 5 6 7 7 8 7 8 11 11 8 5 6 12 11 9 9 7 7 6 3 2 2 3 2
5 5 7 7 7 7 7 7 7 7 6 6 6 7 7 6 5 5 5 5 4 4 4 5 5 5 5 5 5 5 5 5 5 4 3 2 1 2 2 2 2 3 2 1 1 1 2 2 3 3 2 3 3 5 6 5 4 3 3 4 3 4 5 7 7 7 6 7 12 8 4 3 3 10 12 10 9 6 6 7 5 4 5 7 5
5 6 7 7 6 7 7 7 8 8 7 6 6 7 6 6 6 6 6 5 5 5 6 6 6 5 5 5 5 6 6 5 5 4 3 2 1 1 0 2 2 2 1 0 1 2 2 2 2 1 2 2 3 4 5 4 4 3 3 3 3 4 4 5 5 7 5 5 9 5 2 3 2 8 11 9 8 8 5 7 6 5 7 8 8
6 7 7 7 6 7 7 8 8 9 8 7 7 6 5 5 5 6 6 6 6 6 6 7 6 5 5 5 6 6 6 5 4 4 3 1 1 1 2 2 3 1 0 1 2 2 2 2 2 1 1 2 3 4 4 3 4 3 4 5 4 4 4 4 4 5 5 4 4 2 1 2 2 4 11 10 6 7 3 5 7 5 7 6 7
7 8 8 7 7 7 7 8 8 9 9 8 7 6 5 5 5 6 6 6 6 6 6 6 6 5 5 6 7 6 6 5 5 5 3 1 1 1 2 2 2 2 2 3 2 2 2 3 2 0 1 2 1 2 2 2 3 3 3 4 4 4 5 4 3 3 3 4 2 1 2 1 2 3 11 12 5 6 3 5 9 7 6 5 7
7 8 8 8 8 7 8 8 8 8 8 8 7 6 6 6 7 7 6 6 6 7 6 6 5 5 6 7 7 6 6 5 5 5 4 2 0 1 2 2 4 3 4 4 3 2 1 2 2 1 1 0 1 1 1 1 2 3 1 2 3 4 5 4 3 2 2 3 3 3 2 0 2 3 10 13 5 4 3 3 6 6 6 4 6
7 7 7 8 8 8 8 8 8 8 8 8 7 7 7 8 8 8 7 7 6 6 5 5 5 6 7 7 7 7 6 6 5 4 4 3 2 3 3 3 5 4 4 4 2 1 1 2 2 2 2 1 1 1 2 2 2 3 1 1 2 4 5 4 3 3 3 3 3 3 2 2 2 1 8 12 6 2 1 4 5 6 6 4 1
7 8 7 8 8 9 9 8 8 8 9 9 9 9 8 9 9 8 8 8 6 5 5 5 6 8 9 8 8 7 6 6 5 4 5 4 4 5 5 5 6 5 4 4 2 2 2 2 1 1 2 3 2 1 2 2 2 2 2 2 3 4 5 6 5 3 4 4 3 4 4 4 1 2 9 11 7 3 2 3 9 9 6 3 1
7 8 8 8 8 9 9 9 9 9 9 9 9 9 9 10 10 9 9 8 7 6 6 6 8 9 9 9 9 9 7 6 5 5 4 4 4 5 5 6 6 6 4 3 3 3 2 0 1 2 3 4 4 2 2 2 2 3 4 4 4 5 5 7 7 3 4 5 5 4 4 5 3 5 10 10 8 4 3 2 3 3 2 1 1
7 7 8 8 8 9 10 9 9 9 9 9 10 9 10 10 10 10 9 9 8 7 7 8 9 9 9 9 9 9 8 5 5 4 4 3 4 4 5 5 5 5 3 2 2 2 1 1 1 2 2 3 3 3 2 2 3 3 4 5 6 6 7 8 7 4 4 5 5 5 3 3 3 6 9 10 8 6 4 2 2 2 1 1 1
6 7 7 8 8 10 10 10 9 9 9 10 10 10 10 10 10 10 10 9 9 8 8 8 9 9 9 8 8 9 8 6 5 3 3 2 2 3 3 3 3 3 2 2 2 2 1 0 1 1 2 2 2 2 2 3 4 4 5 6 7 8 8 8 7 6 6 5 5 4 3 2 3 7 9 9 9 7 4 2 2 1 1 2 2
6 6 6 8 9 9 10 10 9 9 10 11 10 10 11 10 10 10 10 9 9 8 9 8 8 8 8 8 9 9 8 7 6 3 2 1 2 2 2 2 2 1 1 1 1 0 1 1 0 1 2 2 2 3 4 4 4 4 5 6 7 8 9 7 7 7 7 6 6 5 3 3 5 8 9 8 7 7 5 3 3 3 3 3 4
6 6 7 9 10 9 9 10 10 11 11 11 10 10 11 10 10 10 9 9 8 8 9 8 8 8 8 8 8 8 7 7 7 5 3 2 1 1 0 0 0 1 1 1 1 1 1 1 1 2 3 3 4 4 5 5 4 5 5 7 7 8 9 9 7 7 7 6 6 5 2 5 8 9 8 6 5 5 4 3 4 4 6 6 5
6 7 8 9 10 10 10 10 11 12 11 12 11 11 11 10 10 10 9 9 9 9 9 9 9 9 9 9 8 8 8 7 8 8 7 4 2 2 2 2 2 2 2 2 2 2 1 1 1 3 4 4 5 5 6 5 5 5 6 7 8 9 10 11 9 7 7 6 5 4 3 7 10 10 9 6 5 6 4 3 5 6 7 7 6
7 7 8 9 10 10 10 11 12 12 12 13 12 12 12 11 11 10 10 10 10 10 10 11 10 10 9 9 9 8 9 9 9 9 9 8 5 4 3 2 2 2 2 2 3 2 1 1 2 3 4 5 6 6 6 6 6 7 7 7 8 9 10 10 8 6 8 7 5 4 4 8 10 10 8 5 4 7 5 4 6 7 7 7 4
6 8 8 8 9 10 11 12 13 12 13 13 13 13 13 13 12 11 11 10 9 10 10 11 11 10 10 9 9 9 10 10 9 10 9 9 7 6 5 4 3 3 2 2 2 2 1 1 2 3 4 5 6 7 6 6 6 7 7 8 7 8 9 8 6 6 7 6 5 4 7 10 10 7 7 5 4 6 6 4 6 8 8 7 5
7 8 7 8 9 10 11 12 12 12 12 12 12 12 12 13 13 12 11 10 10 9 9 11 11 10 9 9 8 8 9 8 8 9 9 8 8 7 7 6 5 5 4 3 2 1 1 1 1 1 3 5 6 7 6 6 6 6 6 6 7 7 7 6 6 7 6 6 6 6 8 9 7 6 7 5 4 5 5 3 4 6 8 7 6
8 7 7 9 9 10 11 11 11 10 11 10 10 9 9 11 11 11 10 11 10 9 9 9 9 8 8 7 7 7 7 7 7 7 8 8 8 7 6 6 5 4 3 2 1 1 1 1 1 0 1 2 4 5 5 5 5 5 6 5 6 5 6 7 7 7 7 7 7 8 7 6 4 5 5 3 4 6 5 2 1 3 5 5 5
7 7 8 9 9 10 10 11 10 9 10 9 9 8 8 9 9 9 9 9 9 9 8 7 7 6 6 6 6 7 6 6 6 6 7 7 7 6 6 5 5 4 3 2 2 1 1 1 1 1 1 1 2 3 4 5 5 5 5 6 6 5 7 9 8 8 8 8 9 8 6 3 3 4 2 3 3 5 5 4 4 4 5 5 3
7 6 8 9 9 10 10 10 10 10 10 9 10 9 9 10 9 9 9 8 8 8 7 7 7 6 5 5 5 5 5 5 5 5 6 6 6 6 6 6 5 5 4 4 4 3 3 3 3 3 3 4 3 3 4 6 6 6 6 6 6 6 9 11 11 10 8 9 10 7 4 4 3 2 2 3 3 4 5 6 6 5 6 5 5
7 7 8 9 9 10 10 10 10 10 10 11 10 10 10 11 10 10 9 9 9 8 8 8 7 7 6 6 5 4 4 4 5 5 5 6 6 7 7 7 7 6 6 5 5 5 5 5 6 6 5 5 4 4 5 6 7 6 6 6 6 9 10 11 12 10 8 10 9 4 4 4 2 1 3 3 4 4 5 6 6 7 6 6 6
7 7 8 9 9 9 9 10 10 11 11 11 10 9 10 10 10 10 10 10 10 10 10 9 8 8 7 7 6 5 5 5 5 5 5 5 5 6 6 7 7 7 7 6 5 6 7 6 7 7 6 5 5 5 5 6 7 6 6 6 7 9 11 11 11 11 8 8 7 4 4 3 1 2 2 3 4 4 5 5 6 7 7 7 8
8 7 7 7 8 8 8 10 10 11 11 10 10 9 9 10 10 10 10 10 9 9 10 10 9 9 8 7 6 5 5 5 6 6 7 7 6 6 5 6 6 6 7 5 5 6 6 6 6 6 6 6 6 6 6 6 5 5 5 6 7 8 9 9 10 11 7 5 5 3 3 2 2 2 2 3 3 4 4 5 6 7 8 8 9
8 8 7 7 8 8 9 10 11 11 10 10 10 10 10 11 10 10 9 8 9 9 9 9 9 9 8 8 7 6 6 6 7 8 8 8 7 7 7 7 6 7 7 6 6 7 6 5 5 5 6 5 5 5 6 6 5 5 5 5 6 7 8 7 8 9 5 4 2 1 1 1 1 1 2 1 2 3 3 5 6 6 8 8 9
8 9 8 7 9 10 10 11 11 10 10 10 11 10 11 11 10 10 9 9 9 9 10 10 9 9 8 8 8 7 8 8 8 9 9 9 9 8 7 7 7 7 7 6 7 7 7 6 5 5 5 5 5 5 5 6 5 5 4 6 7 7 8 7 6 5 4 4 3 3 1 1 0 0 1 1 2 3 3 4 5 5 6 7 8
9 10 9 9 11 12 11 11 10 10 10 10 11 11 11 11 11 11 10 10 10 10 11 11 10 9 9 9 9 8 8 9 9 9 9 9 9 9 8 7 7 8 8 7 7 7 7 8 6 5 5 5 5 5 5 5 5 5 5 6 7 7 7 6 5 4 4 4 5 5 1 1 1 1 1 1 1 2 3 3 4 4 4 4 5
10 10 9 11 13 12 11 10 10 10 11 11 11 11 11 10 10 11 11 10 11 12 12 11 11 10 10 10 9 8 8 9 9 9 9 9 8 8 8 7 8 8 8 8 8 7 7 8 8 7 6 5 5 5 5 5 5 5 5 5 6 7 6 3 4 4 4 4 5 6 4 3 3 2 2 1 2 2 3 4 4 5 4 2 1
13 12 11 11 12 10 9 9 10 10 10 11 11 11 10 10 11 11 11 11 13 13 11 12 11 11 11 11 10 10 10 10 11 10 9 8 7 7 7 7 7 8 8 8 9 8 7 8 8 8 8 6 6 5 5 5 4 4 4 4 4 5 4 3 4 4 4 5 5 8 6 4 4 3 3 3 3 5 5 6 6 7 7 5 5
16 15 12 10 9 9 8 9 10 10 10 11 11 10 10 11 11 11 11 12 15 13 11 13 13 13 14 13 13 14 14 14 15 14 10 7 7 6 7 7 7 7 8 7 8 8 7 8 8 8 8 7 7 6 4 5 4 4 4 4 3 3 2 3 4 4 4 4 5 7 6 5 6 6 5 5 5 7 8 8 8 8 8 7 6
14 13 12 10 9 9 9 9 9 9 10 10 10 9 10 10 11 12 12 13 14 13 13 15 15 15 15 16 15 15 15 16 17 16 11 8 9 7 6 7 8 8 8 8 7 7 7 7 8 7 7 6 6 6 5 4 4 4 4 3 3 2 2 4 4 3 4 4 3 4 5 7 8 7 6 7 7 8 9 9 9 10 10 9 9
10 10 10 10 10 10 10 10 9 9 9 9 9 8 9 10 10 12 13 13 13 12 13 15 15 14 14 15 16 14 15 15 15 17 14 10 9 9 8 7 8 8 9 9 7 7 7 7 7 6 6 5 5 5 4 4 3 3 4 3 2 2 2 3 3 3 3 2 3 4 5 6 6 7 6 6 7 8 9 9 9 10 9 10 9
10 10 10 10 10 10 10 10 9 9 8 9 8 7 8 10 10 11 12 13 12 12 13 12 11 11 11 12 14 14 14 14 15 16 16 11 9 10 9 9 10 9 9 9 8 7 7 6 6 6 6 5 4 4 3 5 4 4 5 3 1 1 1 2 3 4 2 1 3 4 4 5 5 6 6 5 6 6 6 6 7 7 7 8 8
10 10 10 10 10 10 9 9 9 8 8 9 9 8 8 10 10 11 11 12 12 11 11 11 10 10 9 10 12 13 13 13 14 15 15 11 9 9 10 12 12 10 10 10 9 8 7 7 6 5 5 5 4 4 4 4 5 5 5 3 2 1 1 1 2 2 1 1 4 4 5 7 5 6 5 5 6 5 3 4 4 4 3 4 4
9 9 10 9 9 9 9 8 8 9 9 9 9 9 9 10 10 11 11 11 12 11 10 10 9 10 10 10 11 12 12 12 12 13 13 11 10 10 11 14 13 11 11 10 9 9 7 7 7 6 4 5 5 4 4 4 5 5 4 3 2 1 1 2 1 0 4 3 4 4 5 7 6 6 6 5 5 5 4 3 3 2 2 3 3
8 8 9 9 9 9 8 8 9 10 10 11 11 10 10 10 10 11 11 11 11 11 11 10 9 10 11 11 12 12 12 12 12 12 12 11 10 10 11 13 12 11 11 9 8 9 9 6 6 7 5 4 5 4 4 5 5 5 5 4 3 2 2 2 1 3 5 3 4 5 6 7 7 7 7 5 4 3 3 4 5 4 3 2 4
7 7 8 9 9 9 8 8 10 10 11 12 12 10 10 10 10 10 11 11 10 10 11 10 10 11 11 13 13 13 13 12 11 11 12 11 10 11 12 13 12 11 11 8 7 9 11 9 5 7 7 5 5 5 5 5 5 4 5 5 4 4 4 3 3 4 5 4 4 6 7 7 7 7 6 5 4 3 3 4 6 7 7 6 4
7 8 8 8 9 9 9 9 10 11 12 12 11 11 10 11 11 11 11 12 10 10 11 11 11 11 12 14 14 15 15 14 13 12 11 11 10 11 12 13 12 11 11 10 8 8 11 11 8 5 6 6 6 6 6 5 5 5 6 6 4 4 4 4 4 3 5 5 4 6 7 6 6 5 5 6 6 5 4 5 5 5 8 10 9
7 7 7 8 9 9 9 10 11 11 12 12 12 12 12 12 13 13 13 13 12 12 12 12 12 12 14 15 15 16 16 15 15 14 13 12 11 11 11 12 11 10 11 11 10 10 10 10 9 7 5 7 7 7 7 5 6 6 6 6 4 4 4 4 4 3 5 7 6 6 7 5 4 4 4 6 6 5 6 6 6 5 5 6 8
7 8 7 8 9 10 10 10 11 11 12 12 13 13 13 14 13 14 14 13 13 13 14 13 14 15 16 16 16 17 17 16 16 15 15 14 14 13 12 12 12 11 12 12 12 11 9 8 8 7 5 7 8 8 8 7 8 6 6 6 4 4 3 3 3 4 7 6 6 8 6 5 4 4 4 6 6 7 8 7 7 5 5 6 5
8 8 8 9 9 10 10 10 10 11 12 13 14 14 14 15 15 15 16 15 15 16 16 15 15 17 17 16 16 16 16 16 16 16 16 15 15 15 15 14 13 13 12 12 12 11 10 8 7 7 6 6 7 8 9 9 9 8 8 8 7 7 5 5 4 5 5 4 6 8 5 4 5 4 5 6 6 7 8 8 8 7 7 7 6
8 9 9 9 10 10 11 11 11 12 14 15 15 15 16 16 17 17 17 17 17 17 18 18 17 17 18 17 17 17 17 16 16 17 17 17 17 16 16 15 14 14 14 13 12 10 10 9 8 7 6 6 6 7 9 10 10 10 9 9 8 8 7 8 8 5 5 5 7 7 5 4 5 5 5 6 6 6 8 8 8 9 10 10 8
9 9 10 10 10 11 12 13 13 14 15 16 16 16 16 16 17 17 16 17 17 17 18 20 20 20 20 19 19 19 18 18 18 18 18 18 18 19 19 18 17 16 15 14 12 11 11 10 10 9 7 7 7 7 8 10 12 12 11 10 8 8 7 7 10 7 6 8 8 7 5 5 5 5 5 6 5 6 7 7 9 10 11 12 12
9 10 11 12 12 12 13 13 14 15 15 16 16 16 16 16 17 17 17 18 18 19 20 21 22 22 22 22 21 21 20 20 20 20 21 20 19 19 20 20 19 18 16 15 14 13 12 11 11 10 9 8 8 8 8 8 11 14 14 13 11 9 6 5 8 7 7 11 11 8 6 5 4 4 5 6 5 5 6 6 8 10 11 13 13
11 11 12 13 13 13 14 14 14 15 16 17 17 17 17 18 19 20 19 20 20 21 22 22 22 23 23 24 24 23 23 22 21 21 23 22 20 20 20 21 20 19 17 17 17 16 14 12 12 12 11 10 9 9 9 8 10 12 13 15 14 13 10 8 9 7 8 12 12 9 7 6 5 6 7 6 4 4 5 6 7 9 11 13 14
13 14 14 14 14 15 15 15 16 17 18 19 20 21 21 22 23 23 23 23 24 24 25 25 25 25 26 26 26 26 26 25 24 24 25 23 21 23 23 22 22 22 20 19 17 17 17 15 14 14 13 12 10 9 10 9 9 10 11 13 14 14 14 12 11 10 10 12 13 11 9 8 8 9 8 5 3 3 3 5 6 8 11 13 15
16 16 16 16 16 17 17 18 19 20 20 21 22 23 23 23 24 26 26 26 26 25 26 27 28 29 30 30 31 31 30 29 27 26 27 25 23 26 27 26 25 24 24 23 19 18 21 21 17 15 14 13 11 10 11 10 8 10 11 12 13 12 12 12 12 12 11 9 11 12 13 12 10 10 8 5 3 2 1 2 5 7 10 14 16
18 18 18 18 18 18 18 19 20 21 21 21 22 23 23 25 26 28 28 27 26 26 27 28 29 29 31 32 32 32 32 32 31 28 28 27 25 26 27 27 26 25 26 26 23 21 26 26 20 16 16 15 13 11 11 11 9 10 11 12 12 11 10 10 10 10 10 8 8 10 14 15 13 11 9 7 5 2 1 1 4 6 10 13 16
19 19 19 19 18 18 18 19 20 20 21 21 22 24 25 26 27 28 28 26 26 26 27 27 27 26 27 28 28 29 29 31 31 30 29 28 26 25 26 26 26 26 25 25 24 24 25 25 21 18 17 15 15 13 12 12 11 11 12 13 13 11 10 10 10 9 9 10 10 12 13 13 12 10 10 8 5 2 2 1 2 6 9 12 15
Wind_Direction
27 26 29 27 28 34 35 39 31 22 21 19 26 29 11 351 342 355 346 293 283 339 317 4 8 1 19 14 8 355 345 339 343 352 349 324 312 278 266 259 253 227 256 273 293 234 213 288 337 356 21 7 162 181 191 178 149 126 120 106 92 87 86 70 50 46 57 80 87 83 80 61 48 27 360 351 352 2 30 73 83 59 7 295 309
24 28 23 25 28 27 31 37 32 26 28 27 31 42 48 18 1 21 24 14 26 47 44 39 20 356 7 4 358 1 7 358 343 329 319 307 294 282 273 265 279 293 243 293 345 212 257 8 13 60 103 126 151 167 180 162 138 132 124 103 95 89 86 66 44 43 54 71 80 77 68 51 36 27 22 14 9 29 60 86 102 102 251 285 322
30 33 27 26 31 28 29 32 33 30 27 28 29 35 42 38 35 41 39 31 31 43 48 49 18 6 15 11 6 9 14 7 356 334 318 301 292 281 269 264 280 274 261 283 280 272 272 60 106 130 136 147 154 163 154 142 136 134 117 104 100 84 74 64 48 43 53 60 71 65 44 29 33 37 40 35 33 49 69 97 117 120 258 300 11
32 36 37 34 31 31 33 29 34 35 27 24 27 33 36 39 53 63 67 63 60 60 57 52 23 23 26 17 16 19 24 23 22 19 7 329 303 286 269 260 275 279 287 296 289 67 115 87 124 136 144 152 154 154 132 127 132 124 104 105 94 72 64 61 52 43 52 56 63 65 40 14 16 23 31 38 42 54 68 85 101 79 354 6 30
33 34 43 46 36 34 38 32 33 37 35 27 30 38 39 44 60 71 79 84 79 69 59 53 40 32 30 23 20 18 20 24 29 26 18 24 14 311 274 243 276 291 293 295 301 71 108 96 117 130 126 136 145 142 125 124 123 109 106 107 74 50 55 62 57 46 46 58 64 74 59 38 352 353 13 33 39 49 57 58 50 41 20 18 35
37 41 44 45 40 37 37 35 34 34 37 35 34 41 44 46 57 67 72 77 72 70 64 58 49 41 41 38 34 28 22 17 26 31 25 44 65 38 80 179 204 256 286 23 69 65 81 86 86 86 79 105 132 130 123 132 126 122 114 96 69 54 53 65 64 45 29 50 59 64 60 51 18 328 358 21 32 43 44 37 36 30 16 28 54
39 44 43 37 33 34 32 32 35 31 36 37 36 38 44 47 48 55 60 63 64 69 66 62 57 53 56 49 43 40 33 19 30 40 38 75 111 108 122 178 192 209 129 86 111 86 72 73 42 5 63 102 139 130 127 142 128 126 108 88 71 56 52 66 70 46 20 30 49 59 56 27 61 309 349 11 24 37 41 32 20 2 8 29 77
41 43 40 34 27 28 30 30 33 31 33 36 37 35 36 41 41 44 52 59 63 65 60 64 64 61 58 49 46 45 40 30 36 40 36 68 153 131 137 164 147 138 132 116 129 126 96 94 80 72 84 94 125 131 149 164 148 148 107 80 52 36 38 49 50 43 19 18 1 356 51 350 37 296 337 2 10 27 41 34 7 343 5 31 89
45 46 42 36 26 26 33 34 35 34 33 35 36 35 33 37 44 45 45 49 58 64 64 69 70 62 57 49 47 46 41 37 39 38 35 42 184 138 134 133 124 141 138 122 148 171 108 88 74 18 317 272 195 223 256 274 195 200 133 64 28 21 17 23 19 13 352 354 316 322 37 27 35 290 320 350 354 13 39 57 4 328 355 31 98
48 44 43 38 28 31 36 37 39 39 37 38 36 38 38 38 46 47 41 40 46 59 67 73 69 57 50 41 40 41 40 38 36 38 45 55 119 137 148 138 129 142 139 132 160 165 97 72 52 7 333 290 242 253 279 300 266 231 215 354 357 4 360 1 353 351 347 341 298 291 340 14 73 258 314 347 352 325 17 136 183 252 305 333 163
47 41 39 34 31 34 35 38 41 44 41 39 37 37 37 38 46 47 42 40 42 56 72 74 65 56 48 41 39 37 38 37 34 39 45 63 107 136 156 152 140 143 142 139 143 118 109 94 66 351 346 354 353 321 292 292 287 250 251 295 319 337 346 347 338 324 334 332 316 288 300 334 10 331 333 349 356 324 320 172 194 225 259 285 224
46 42 37 34 35 37 37 38 38 42 43 42 41 38 35 41 49 49 48 49 53 60 68 67 59 58 54 49 45 41 42 39 36 41 45 63 99 128 147 149 148 149 149 143 133 119 116 82 342 317 334 358 10 358 325 300 283 258 252 273 287 313 330 332 337 332 324 320 326 321 304 321 313 334 341 344 355 346 312 266 215 230 226 288 189
49 47 41 41 42 44 43 38 35 39 44 46 47 42 40 46 53 55 57 60 64 64 61 61 59 60 56 50 47 45 46 42 35 42 50 62 92 117 132 136 141 145 144 140 132 120 115 332 328 318 329 345 360 1 337 296 282 271 254 264 274 297 315 318 330 333 322 318 324 330 321 313 288 321 336 339 349 345 317 305 312 297 293 359 189
53 50 50 55 51 47 45 42 39 39 45 51 52 51 51 54 57 59 64 67 70 69 65 64 61 61 56 48 47 43 38 35 31 38 57 64 91 115 130 130 139 142 139 149 143 124 140 292 349 324 328 326 332 329 299 281 281 284 274 273 279 292 306 316 326 320 314 319 320 322 316 284 286 320 333 338 345 344 330 317 329 337 319 311 270
61 57 58 63 58 48 45 50 48 46 51 57 60 58 58 59 58 58 62 66 69 69 65 64 61 57 52 46 44 41 34 31 30 28 31 29 70 106 144 144 156 159 146 162 155 152 216 211 212 288 298 296 290 289 282 285 286 291 291 286 291 296 303 313 313 306 305 308 309 316 310 273 301 322 330 339 343 338 326 323 354 12 1 330 299
67 63 61 63 59 51 49 55 55 54 57 61 64 61 59 59 59 61 60 61 61 62 60 57 55 48 43 40 38 37 37 36 36 37 31 359 359 27 69 137 259 284 283 266 301 299 250 215 234 259 273 274 270 274 277 283 287 291 294 292 298 300 305 312 308 300 300 302 299 309 289 281 313 322 322 334 337 335 318 318 346 343 347 342 314
63 64 66 66 59 54 55 59 60 57 60 63 63 61 60 59 59 62 62 61 58 58 55 50 49 46 41 41 41 39 42 42 38 41 44 39 11 355 348 352 351 346 337 322 335 329 289 238 250 266 271 272 268 267 269 272 278 283 288 293 298 303 307 309 310 296 292 300 292 298 264 278 313 316 313 323 327 340 324 304 337 336 333 332 315
64 72 73 69 63 61 62 63 65 63 64 67 64 60 59 58 58 60 61 60 55 55 53 47 46 47 44 47 51 48 45 45 43 45 47 50 44 31 19 16 16 359 352 344 348 340 304 282 277 278 276 276 271 266 267 270 275 280 287 294 299 306 306 310 314 288 289 301 292 299 263 275 310 309 307 313 313 336 334 318 348 351 338 332 323
72 81 77 72 71 71 71 68 68 70 69 70 67 59 54 55 57 56 56 55 48 47 48 45 45 48 48 52 55 53 51 47 47 49 52 55 53 49 47 46 50 51 41 22 8 340 309 295 277 269 266 266 268 270 272 274 279 285 292 298 302 305 306 316 309 281 288 286 282 285 259 284 311 298 295 298 297 327 337 347 6 15 8 357 355
67 77 78 77 78 78 77 72 69 70 69 69 67 57 49 50 52 51 52 52 49 48 49 46 47 51 51 55 58 58 59 55 49 51 52 54 55 53 49 47 46 48 52 49 52 38 15 332 295 263 253 250 257 266 271 274 281 290 296 299 302 305 305 305 289 285 286 272 279 263 262 299 310 279 286 289 291 311 327 356 12 19 22 22 20
59 64 75 81 83 81 76 72 67 64 64 63 62 54 46 48 49 49 49 52 51 52 57 55 54 57 55 58 65 65 64 59 53 50 45 43 45 45 45 44 40 36 38 40 58 74 80 73 57 61 240 245 254 260 266 272 273 280 289 291 293 300 293 281 279 287 283 279 276 253 272 313 283 276 285 271 292 299 301 288 292 340 344 6 30
63 59 76 88 88 83 74 69 64 59 60 59 60 58 57 59 55 50 47 52 55 54 55 55 51 50 52 57 66 68 64 58 48 40 34 30 27 26 27 28 27 19 6 350 331 328 324 339 334 287 283 268 263 261 265 273 272 271 272 278 287 285 271 272 283 288 282 278 266 259 288 302 267 297 270 232 284 286 283 264 247 262 291 319 334
69 67 81 91 88 80 71 67 64 60 62 64 65 64 67 67 61 53 46 46 50 50 42 36 32 26 32 35 46 56 52 48 38 28 19 15 8 3 5 4 6 5 360 343 330 326 316 306 291 285 282 273 275 271 263 270 283 289 286 286 283 271 268 280 292 290 283 277 268 269 283 267 286 309 219 233 256 265 277 268 260 262 279 295 286
72 74 81 86 84 79 74 68 64 65 69 71 69 65 63 60 53 47 40 35 34 33 26 22 15 10 14 12 13 21 27 24 17 16 10 9 355 346 351 348 347 347 347 347 336 327 323 317 306 301 290 284 285 276 259 256 266 277 286 286 277 280 288 293 293 287 287 285 281 282 271 268 291 208 208 237 235 246 259 262 264 259 268 276 279
77 79 79 82 83 80 76 71 68 71 73 70 67 60 55 48 39 37 34 35 32 24 19 17 13 13 14 11 11 10 17 11 6 10 10 13 358 345 344 335 333 327 329 341 326 309 315 310 301 303 300 294 280 271 265 260 262 267 276 282 284 293 299 297 292 288 286 287 291 291 275 269 212 188 199 208 213 238 247 257 262 259 270 276 282
79 82 79 78 82 80 75 75 73 73 70 65 61 50 42 37 32 36 36 36 38 29 19 16 17 20 20 21 27 30 29 16 8 8 8 13 2 347 334 324 325 318 316 321 305 294 299 292 284 288 288 285 278 276 280 280 279 281 287 292 296 300 300 300 294 292 289 286 299 298 271 256 192 208 229 195 207 241 249 259 262 268 276 280 285
77 80 74 69 80 83 79 79 74 68 62 56 51 40 36 36 34 40 37 33 39 33 24 23 23 26 29 30 34 35 35 25 13 10 12 12 2 351 338 332 333 320 308 303 304 299 293 288 283 281 281 283 280 281 288 291 285 280 291 296 299 301 296 293 290 299 307 296 324 48 306 298 177 257 280 222 228 250 258 269 273 276 280 287 290
77 78 73 68 81 87 84 80 71 63 58 51 47 42 41 40 39 40 33 30 34 29 27 32 33 32 33 36 34 28 28 25 15 11 10 7 3 359 349 343 339 326 317 310 304 299 297 294 290 285 282 281 278 279 281 283 284 286 292 294 300 305 297 292 294 315 328 316 22 65 355 340 55 292 296 263 264 279 284 286 289 289 296 299 289
77 76 74 76 84 85 82 75 66 59 56 54 48 45 44 41 40 38 31 31 30 26 27 32 37 36 33 36 33 25 21 14 9 8 4 0 1 2 357 352 346 339 337 331 315 305 304 301 302 301 289 284 280 279 275 276 286 290 289 296 304 305 303 308 319 344 342 343 55 78 78 56 27 56 75 294 295 309 312 321 319 324 340 313 294
85 83 80 83 84 80 73 66 62 56 52 52 48 46 46 42 41 37 33 33 31 30 29 30 35 36 34 35 30 24 18 6 3 359 357 359 358 360 359 356 353 349 345 341 332 321 314 309 310 308 298 292 283 276 274 279 290 293 292 298 301 303 311 330 342 0 359 348 61 88 89 80 60 41 54 32 13 13 11 27 18 21 47 30 21
93 93 90 85 81 72 66 61 58 54 49 49 49 50 50 46 43 39 37 39 39 38 33 32 36 36 38 40 36 32 27 21 18 9 5 4 357 359 359 358 357 352 349 347 339 330 325 317 311 304 299 298 293 285 273 276 286 295 299 300 307 321 336 4 2 12 27 6 48 86 88 80 78 69 72 69 50 56 55 52 45 49 71 77 73
93 93 91 83 74 66 63 61 57 52 49 49 50 51 51 47 44 42 43 44 46 44 39 38 40 41 43 44 42 39 34 30 29 26 19 5 2 4 357 357 358 352 348 348 343 336 334 322 313 309 305 303 299 290 274 273 281 291 303 310 321 347 358 21 29 19 45 34 28 69 86 87 87 86 85 86 77 69 60 58 59 58 69 75 75
90 87 85 78 70 66 64 63 60 54 50 49 49 48 47 45 40 42 46 48 49 46 44 45 44 44 43 43 43 38 35 32 29 32 30 10 9 11 1 355 354 353 348 348 348 338 335 327 323 320 310 305 297 292 289 283 286 296 307 319 329 31 34 25 40 20 41 68 43 54 88 98 93 89 85 86 81 71 64 65 68 66 67 73 76
85 80 75 70 64 61 60 60 59 55 49 48 48 45 43 40 34 37 40 45 48 43 44 45 42 43 40 39 42 38 35 33 28 32 35 23 13 13 12 356 351 358 348 345 352 341 334 330 328 325 311 305 294 292 293 286 286 288 291 311 3 52 36 10 32 41 32 75 104 86 89 97 94 89 85 81 75 68 70 71 70 71 71 74 73
84 77 70 64 59 56 54 53 53 50 44 42 41 36 35 35 31 32 32 36 42 38 40 42 37 38 36 32 38 39 36 34 30 30 32 25 11 11 12 5 5 5 348 347 355 342 335 331 329 328 317 312 303 297 283 272 269 267 277 283 105 101 39 359 39 65 22 359 114 115 105 98 93 89 80 71 67 59 66 72 67 70 73 74 69
82 77 68 60 54 54 52 49 45 38 33 31 30 24 22 25 25 26 25 26 32 31 30 36 33 31 31 24 27 33 33 31 31 28 29 24 11 8 5 10 18 8 355 360 359 344 336 328 323 326 321 318 314 307 295 277 270 268 272 266 206 173 112 14 61 70 309 253 117 115 108 100 94 90 76 60 60 47 46 58 49 51 58 66 62
78 72 64 57 50 49 48 44 35 27 23 19 18 15 11 13 12 12 13 15 21 20 17 22 21 19 21 16 14 20 23 22 23 21 24 21 11 10 4 8 15 8 4 5 354 348 342 325 319 319 315 311 309 309 306 293 283 277 273 259 239 235 328 319 35 37 256 222 133 106 98 99 95 90 84 75 67 46 27 24 14 13 8 357 342
72 64 57 52 45 42 38 32 25 19 16 12 11 8 3 3 360 359 0 2 5 3 6 8 2 4 5 2 2 6 8 9 11 10 13 12 4 5 3 5 8 5 9 3 343 344 344 336 319 310 305 299 297 297 298 290 280 281 283 270 255 276 303 305 303 243 228 198 132 115 109 105 103 100 100 98 90 68 21 9 356 343 341 324 304
61 53 48 43 37 34 29 21 17 14 13 11 9 4 0 358 356 357 355 358 357 350 355 354 349 352 348 349 353 351 352 354 355 356 359 1 356 353 355 359 359 355 358 357 342 334 339 348 337 308 298 289 284 275 273 275 269 267 272 269 272 288 285 274 270 231 191 155 128 128 122 112 106 100 96 86 73 67 41 30 13 353 348 345 331
52 48 39 34 31 26 22 13 9 10 11 9 4 3 3 358 358 359 356 357 355 348 348 344 341 340 336 341 343 340 342 340 340 341 342 346 347 345 345 348 350 344 340 344 342 331 335 344 344 327 297 286 283 271 267 268 266 269 270 271 278 286 279 268 266 234 176 162 150 134 131 125 111 99 89 81 72 64 59 60 51 24 2 354 351
46 43 34 29 26 21 17 11 6 6 6 5 3 4 2 358 358 358 356 353 349 347 344 337 332 329 329 333 331 331 333 330 330 330 328 331 332 335 336 337 338 335 332 332 332 335 339 340 337 334 304 286 279 270 269 265 262 267 270 273 275 272 265 256 256 228 167 159 154 147 143 128 107 103 99 90 80 66 59 60 62 66 51 21 4
43 38 32 27 23 19 14 10 7 4 2 2 2 2 358 357 356 351 351 347 341 339 335 331 329 328 327 326 323 323 323 322 320 317 319 321 320 322 323 325 326 325 328 326 322 326 331 328 324 324 306 285 272 262 260 258 258 256 252 249 231 220 223 223 226 192 171 164 156 154 146 130 121 114 99 89 79 63 53 49 47 52 67 66 45
43 36 31 27 24 18 12 8 5 0 358 357 358 357 355 354 352 349 348 344 340 339 337 333 329 324 323 322 319 317 316 315 311 306 305 305 307 311 310 313 316 315 316 317 315 310 304 304 307 310 306 291 274 264 259 254 255 256 251 242 223 211 198 183 186 183 186 192 170 158 145 147 145 121 103 97 87 71 59 50 45 50 57 59 54
42 37 32 28 24 15 10 9 2 357 356 357 358 357 356 355 352 352 351 347 345 344 342 337 331 327 325 324 320 316 315 313 307 302 297 293 295 298 299 299 302 305 306 306 307 300 291 287 282 285 295 292 277 266 264 255 252 254 254 251 239 233 226 194 177 174 189 183 166 161 161 162 141 118 112 107 89 70 64 56 51 53 50 45 37
39 35 29 23 20 12 11 11 5 2 1 1 1 359 359 358 357 357 355 352 351 348 344 341 341 341 338 335 331 326 323 315 308 302 296 291 289 292 293 292 291 292 294 296 296 289 284 281 273 270 274 278 275 269 268 260 253 250 250 255 250 248 249 193 168 169 182 178 168 165 171 169 144 126 115 109 93 65 57 50 49 49 41 36 30
34 30 27 24 23 19 17 15 11 9 7 6 5 5 7 7 6 7 4 2 1 358 355 351 351 350 348 347 346 342 337 327 318 309 302 297 293 291 288 288 288 284 283 286 287 286 284 281 272 267 265 266 271 272 271 266 258 250 245 251 250 249 256 204 186 184 174 182 181 171 172 170 151 138 125 122 117 90 69 52 49 46 36 30 25
39 37 37 35 31 28 25 22 21 20 19 19 19 21 25 25 23 24 21 17 14 12 9 6 2 0 358 358 357 355 351 346 339 329 322 314 306 300 290 284 281 277 277 279 280 282 281 277 268 262 260 257 259 268 272 270 265 256 247 249 250 248 246 232 222 206 179 188 190 181 187 185 166 155 134 121 126 110 86 67 57 43 32 27 24
52 51 47 45 41 39 38 37 38 37 35 34 35 37 38 37 34 33 31 27 23 21 18 16 14 13 10 8 7 6 3 0 356 350 347 341 328 321 315 305 291 278 273 272 272 276 273 267 264 264 263 255 250 260 269 267 265 261 252 248 248 249 246 240 236 229 208 193 190 193 198 190 184 181 157 131 139 128 96 81 68 43 31 28 25
60 58 56 54 51 50 49 47 47 45 42 41 41 42 41 39 35 32 31 28 25 23 20 18 16 14 12 10 9 8 6 4 2 359 359 357 346 337 335 330 318 302 290 281 270 268 271 268 262 263 265 261 251 250 260 262 260 260 256 250 247 248 249 244 239 239 229 202 193 199 196 187 190 198 188 173 180 170 127 90 70 45 34 29 25
64 62 61 60 56 51 48 47 47 46 44 42 40 38 35 32 30 28 27 26 23 20 17 15 13 12 10 8 6 5 3 2 360 358 358 357 353 348 346 343 337 328 317 302 283 270 275 278 268 257 259 262 257 249 252 257 257 257 254 251 249 245 241 240 236 233 231 221 209 204 202 194 188 197 204 198 198 182 130 84 72 56 43 36 28
63 60 59 59 56 51 46 45 46 43 40 36 31 29 27 26 25 23 21 20 19 16 15 14 12 10 8 6 5 3 2 0 358 355 354 353 351 350 349 346 344 342 335 320 297 277 273 275 270 259 257 260 258 252 249 251 254 256 252 249 250 246 234 232 232 226 224 225 215 201 201 193 181 195 209 202 201 162 125 148 78 63 51 42 29